This is the latest recevied weather packets stored in our database for station/object K6GMW. If no packets are shown the sender has not sent any weather packets the latest 10 day(s).
| Time | Temp. | Humidity | Pressure | Rain* | Wind** | Luminosity | Snow |
|---|---|---|---|---|---|---|---|
| 1777301507 | 26.11° C | 85% | 1010.9 hPa | 0 mm | - | 587 W/m² | - |
| 1777301203 | 25.56° C | 86% | 1011 hPa | 0 mm | - | 566 W/m² | - |
| 1777300900 | 25.56° C | 86% | 1011.1 hPa | 0 mm | - | 244 W/m² | - |
| 1777300598 | 25.56° C | 86% | 1011.3 hPa | 0 mm | - | 181 W/m² | - |
| 1777300295 | 25° C | 86% | 1011.1 hPa | 0 mm | - | 197 W/m² | - |
| 1777299992 | 25° C | 87% | 1011.2 hPa | 0 mm | - | 141 W/m² | - |
| 1777299688 | 25° C | 88% | 1011.2 hPa | 0 mm | - | 191 W/m² | - |
| 1777299386 | 25° C | 88% | 1011.3 hPa | 0 mm | - | 125 W/m² | - |
| 1777299084 | 25° C | 89% | 1011.3 hPa | 0 mm | - | 87 W/m² | - |
| 1777298781 | 25° C | 88% | 1011.1 hPa | 0 mm | - | 82 W/m² | - |
| 1777298477 | 24.44° C | 89% | 1011.2 hPa | 0 mm | - | 70 W/m² | - |
| 1777298174 | 24.44° C | 89% | 1011.4 hPa | 0 mm | - | 47 W/m² | - |
| 1777297869 | 24.44° C | 88% | 1011.2 hPa | 0 mm | - | 45 W/m² | - |
| 1777297567 | 24.44° C | 88% | 1011.3 hPa | 0 mm | - | 43 W/m² | - |
| 1777297263 | 24.44° C | 88% | 1011.2 hPa | 0 mm | - | 42 W/m² | - |
| 1777296961 | 24.44° C | 88% | 1011.2 hPa | 0 mm | - | 51 W/m² | - |
| 1777296657 | 24.44° C | 88% | 1011.2 hPa | 0 mm | - | 25 W/m² | - |
| 1777296333 | 24.44° C | 88% | 1010.9 hPa | 0 mm | - | 58 W/m² | - |
| 1777296028 | 24.44° C | 88% | 1011 hPa | 0 mm | - | 49 W/m² | - |
| 1777295726 | 24.44° C | 88% | 1010.6 hPa | 0 mm | - | 42 W/m² | - |
| 1777295423 | 24.44° C | 88% | 1010.2 hPa | 0 mm | - | 71 W/m² | - |
| 1777295120 | 24.44° C | 89% | 1010.2 hPa | 0 mm | - | 77 W/m² | - |
| 1777294817 | 24.44° C | 89% | 1009.8 hPa | 0 mm | - | 74 W/m² | - |
| 1777294512 | 24.44° C | 89% | 1009.7 hPa | 0 mm | - | 96 W/m² | - |
| 1777294209 | 24.44° C | 89% | 1009.8 hPa | 0 mm | - | 57 W/m² | - |
* Rain latest hour (hover to see other rain measurements)
** Current wind speed in m/s (hover to see current wind gust speed)